Year,Month,Day,Hour,Minute,Value (Times are PST for windgust in km/hr)
2020,03,29,00,00,6.40
2020,03,29,00,01,4.80
2020,03,29,00,02,4.80
2020,03,29,00,03,11.30
2020,03,29,00,04,11.30
2020,03,29,00,05,9.60
2020,03,29,00,06,17.70
2020,03,29,00,07,12.90
2020,03,29,00,08,8.10
2020,03,29,00,09,12.90
2020,03,29,00,10,14.50
2020,03,29,00,11,11.30
2020,03,29,00,12,19.30
2020,03,29,00,13,17.70
2020,03,29,00,14,14.50
2020,03,29,00,15,12.90
2020,03,29,00,16,6.40
2020,03,29,00,17,14.50
2020,03,29,00,18,14.50
2020,03,29,00,19,9.60
2020,03,29,00,20,8.10
2020,03,29,00,21,6.40
2020,03,29,00,22,8.10
2020,03,29,00,23,9.60
2020,03,29,00,24,9.60
2020,03,29,00,25,11.30
2020,03,29,00,26,9.60
2020,03,29,00,27,8.10
2020,03,29,00,28,8.10
2020,03,29,00,29,9.60
2020,03,29,00,30,3.20
2020,03,29,00,31,4.80
2020,03,29,00,32,14.50
2020,03,29,00,33,8.10
2020,03,29,00,34,3.20
2020,03,29,00,35,6.40
2020,03,29,00,36,4.80
2020,03,29,00,37,9.60
2020,03,29,00,38,8.10
2020,03,29,00,39,9.60
2020,03,29,00,40,11.30
2020,03,29,00,41,6.40
2020,03,29,00,42,6.40
2020,03,29,00,43,9.60
2020,03,29,00,44,11.30
2020,03,29,00,45,11.30
2020,03,29,00,46,9.60
2020,03,29,00,47,8.10
2020,03,29,00,48,8.10
2020,03,29,00,49,16.10
2020,03,29,00,50,12.90
2020,03,29,00,51,12.90
2020,03,29,00,52,14.50
2020,03,29,00,53,9.60
2020,03,29,00,54,4.80
2020,03,29,00,55,6.40
2020,03,29,00,56,9.60
2020,03,29,00,57,8.10
2020,03,29,00,58,3.20
2020,03,29,00,59,3.20
2020,03,29,01,00,8.10
2020,03,29,01,01,4.80
2020,03,29,01,02,3.20
2020,03,29,01,03,4.80
2020,03,29,01,04,6.40
2020,03,29,01,05,12.90
2020,03,29,01,06,9.60
2020,03,29,01,07,12.90
2020,03,29,01,08,17.70
2020,03,29,01,09,11.30
2020,03,29,01,10,17.70
2020,03,29,01,11,11.30
2020,03,29,01,12,14.50
2020,03,29,01,13,14.50
2020,03,29,01,14,12.90
2020,03,29,01,15,9.60
2020,03,29,01,16,11.30
2020,03,29,01,17,9.60
2020,03,29,01,18,9.60
2020,03,29,01,19,9.60
2020,03,29,01,20,8.10
2020,03,29,01,21,4.80
2020,03,29,01,22,3.20
2020,03,29,01,23,8.10
2020,03,29,01,24,8.10
2020,03,29,01,25,4.80
2020,03,29,01,26,4.80
2020,03,29,01,27,3.20
2020,03,29,01,28,3.20
2020,03,29,01,29,1.60
2020,03,29,01,30,4.80
2020,03,29,01,31,4.80
2020,03,29,01,32,1.60
2020,03,29,01,33,3.20
2020,03,29,01,34,4.80
2020,03,29,01,35,1.60
2020,03,29,01,38,1.60
2020,03,29,01,39,1.60
2020,03,29,01,40,3.20
2020,03,29,01,41,3.20
2020,03,29,01,42,3.20
2020,03,29,01,43,3.20
2020,03,29,01,44,3.20
2020,03,29,01,45,4.80
2020,03,29,01,46,4.80
2020,03,29,01,47,3.20
2020,03,29,01,52,1.60
2020,03,29,01,53,1.60
2020,03,29,01,57,1.60
2020,03,29,01,58,1.60
2020,03,29,01,59,3.20
2020,03,29,02,00,1.60
2020,03,29,02,01,1.60
2020,03,29,02,02,1.60
2020,03,29,02,03,1.60
2020,03,29,02,04,3.20
2020,03,29,02,05,1.60
2020,03,29,02,08,1.60
2020,03,29,02,11,1.60
2020,03,29,02,12,1.60
2020,03,29,02,16,1.60
2020,03,29,02,17,1.60
2020,03,29,02,18,1.60
2020,03,29,02,19,1.60
2020,03,29,02,21,1.60
2020,03,29,02,22,3.20
2020,03,29,02,23,3.20
2020,03,29,02,24,3.20
2020,03,29,02,25,3.20
2020,03,29,02,26,1.60
2020,03,29,02,27,1.60
2020,03,29,02,28,1.60
2020,03,29,02,29,1.60
2020,03,29,02,30,1.60
2020,03,29,02,31,1.60
2020,03,29,02,32,3.20
2020,03,29,02,33,1.60
2020,03,29,02,34,1.60
2020,03,29,02,35,3.20
2020,03,29,02,36,3.20
2020,03,29,02,37,1.60
2020,03,29,02,38,1.60
2020,03,29,02,39,1.60
2020,03,29,02,41,1.60
2020,03,29,02,42,1.60
2020,03,29,02,43,1.60
2020,03,29,02,44,1.60
2020,03,29,02,45,1.60
2020,03,29,02,46,1.60
2020,03,29,02,47,1.60
2020,03,29,02,48,1.60
2020,03,29,02,49,1.60
2020,03,29,02,50,1.60
2020,03,29,02,51,1.60
2020,03,29,02,52,1.60
2020,03,29,02,53,4.80
2020,03,29,02,54,3.20
2020,03,29,02,55,3.20
2020,03,29,02,56,3.20
2020,03,29,02,57,1.60
2020,03,29,02,58,1.60
2020,03,29,02,59,1.60
2020,03,29,03,00,3.20
2020,03,29,03,01,3.20
2020,03,29,03,02,4.80
2020,03,29,03,03,4.80
2020,03,29,03,04,6.40
2020,03,29,03,05,3.20
2020,03,29,03,06,3.20
2020,03,29,03,07,1.60
2020,03,29,03,08,1.60
2020,03,29,03,09,1.60
2020,03,29,03,10,1.60
2020,03,29,03,13,1.60
2020,03,29,03,14,1.60
2020,03,29,03,15,1.60
2020,03,29,03,16,1.60
2020,03,29,03,20,1.60
2020,03,29,03,22,1.60
2020,03,29,03,23,1.60
2020,03,29,03,24,1.60
2020,03,29,03,25,1.60
2020,03,29,03,26,1.60
2020,03,29,03,27,1.60
2020,03,29,03,31,1.60
2020,03,29,03,32,1.60
2020,03,29,03,33,1.60
2020,03,29,03,34,1.60
2020,03,29,03,35,1.60
2020,03,29,03,36,1.60
2020,03,29,03,37,1.60
2020,03,29,03,38,1.60
2020,03,29,03,59,1.60
2020,03,29,04,00,3.20
2020,03,29,04,01,3.20
2020,03,29,04,02,1.60
2020,03,29,04,04,1.60
2020,03,29,04,07,1.60
2020,03,29,04,16,1.60
2020,03,29,04,17,1.60
2020,03,29,04,18,1.60
2020,03,29,04,19,1.60
2020,03,29,04,21,1.60
2020,03,29,04,22,3.20
2020,03,29,04,23,1.60
2020,03,29,04,24,1.60
2020,03,29,04,26,1.60
2020,03,29,04,27,1.60
2020,03,29,04,28,1.60
2020,03,29,04,29,1.60
2020,03,29,04,30,1.60
2020,03,29,04,31,1.60
2020,03,29,04,35,1.60
2020,03,29,04,36,1.60
2020,03,29,04,37,1.60
2020,03,29,04,46,1.60
2020,03,29,04,47,1.60
2020,03,29,04,48,1.60
2020,03,29,04,49,1.60
2020,03,29,04,50,3.20
2020,03,29,04,51,1.60
2020,03,29,04,52,1.60
2020,03,29,04,53,1.60
2020,03,29,05,00,1.60
2020,03,29,05,05,1.60
2020,03,29,05,06,1.60
2020,03,29,05,07,1.60
2020,03,29,05,08,1.60
2020,03,29,05,09,1.60
2020,03,29,05,10,1.60
2020,03,29,05,11,1.60
2020,03,29,05,12,3.20
2020,03,29,05,13,1.60
2020,03,29,05,14,1.60
2020,03,29,05,15,1.60
2020,03,29,05,19,1.60
2020,03,29,05,20,1.60
2020,03,29,05,22,1.60
2020,03,29,05,23,1.60
2020,03,29,05,24,1.60
2020,03,29,05,25,3.20
2020,03,29,05,26,1.60
2020,03,29,05,27,1.60
2020,03,29,05,28,1.60
2020,03,29,05,29,1.60
2020,03,29,05,30,1.60
2020,03,29,05,31,1.60
2020,03,29,05,32,1.60
2020,03,29,05,37,1.60
2020,03,29,05,38,1.60
2020,03,29,05,39,3.20
2020,03,29,05,40,3.20
2020,03,29,05,41,3.20
2020,03,29,05,42,3.20
2020,03,29,05,43,1.60
2020,03,29,05,44,1.60
2020,03,29,05,45,3.20
2020,03,29,05,46,4.80
2020,03,29,05,47,3.20
2020,03,29,05,48,1.60
2020,03,29,05,51,1.60
2020,03,29,05,52,1.60
2020,03,29,05,53,1.60
2020,03,29,05,57,1.60
2020,03,29,05,58,1.60
2020,03,29,05,59,1.60
2020,03,29,06,00,1.60
2020,03,29,06,01,1.60
2020,03,29,06,02,3.20
2020,03,29,06,03,4.80
2020,03,29,06,04,4.80
2020,03,29,06,05,4.80
2020,03,29,06,06,4.80
2020,03,29,06,07,6.40
2020,03,29,06,08,6.40
2020,03,29,06,09,4.80
2020,03,29,06,10,4.80
2020,03,29,06,12,1.60
2020,03,29,06,13,1.60
2020,03,29,06,14,1.60
2020,03,29,06,17,1.60
2020,03,29,06,18,3.20
2020,03,29,06,19,3.20
2020,03,29,06,20,1.60
2020,03,29,06,21,1.60
2020,03,29,06,22,1.60
2020,03,29,06,23,1.60
2020,03,29,06,24,1.60
2020,03,29,06,25,1.60
2020,03,29,06,26,1.60
2020,03,29,06,27,1.60
2020,03,29,06,28,1.60
2020,03,29,06,29,1.60
2020,03,29,06,30,3.20
2020,03,29,06,31,3.20
2020,03,29,06,32,1.60
2020,03,29,06,33,1.60
2020,03,29,06,34,1.60
2020,03,29,06,35,1.60
2020,03,29,06,37,1.60
2020,03,29,06,38,3.20
2020,03,29,06,40,1.60
2020,03,29,06,41,3.20
2020,03,29,06,42,3.20
2020,03,29,06,43,1.60
2020,03,29,06,44,1.60
2020,03,29,06,45,1.60
2020,03,29,06,46,1.60
2020,03,29,06,47,1.60
2020,03,29,06,48,1.60
2020,03,29,06,49,1.60
2020,03,29,06,57,1.60
2020,03,29,06,58,1.60
2020,03,29,06,59,1.60
2020,03,29,07,00,1.60
2020,03,29,07,01,1.60
2020,03,29,07,02,3.20
2020,03,29,07,03,1.60
2020,03,29,07,04,3.20
2020,03,29,07,05,1.60
2020,03,29,07,06,3.20
2020,03,29,07,07,3.20
2020,03,29,07,08,1.60
2020,03,29,07,09,3.20
2020,03,29,07,10,1.60
2020,03,29,07,11,3.20
2020,03,29,07,12,1.60
2020,03,29,07,13,1.60
2020,03,29,07,14,1.60
2020,03,29,07,15,1.60
2020,03,29,07,18,1.60
2020,03,29,07,19,1.60
2020,03,29,07,20,3.20
2020,03,29,07,21,1.60
2020,03,29,07,22,1.60
2020,03,29,07,27,1.60
2020,03,29,07,28,1.60
2020,03,29,07,29,1.60
2020,03,29,07,30,1.60
2020,03,29,07,31,1.60
2020,03,29,07,32,1.60
2020,03,29,07,37,1.60
2020,03,29,07,38,1.60
2020,03,29,07,39,1.60
2020,03,29,07,40,3.20
2020,03,29,07,41,3.20
2020,03,29,07,42,1.60
2020,03,29,07,43,1.60
2020,03,29,07,53,1.60
2020,03,29,07,54,1.60
2020,03,29,07,55,1.60
2020,03,29,08,02,1.60
2020,03,29,08,04,1.60
2020,03,29,08,05,1.60
2020,03,29,08,06,1.60
2020,03,29,08,09,3.20
2020,03,29,08,10,1.60
2020,03,29,08,11,3.20
2020,03,29,08,12,3.20
2020,03,29,08,13,3.20
2020,03,29,08,14,4.80
2020,03,29,08,15,3.20
2020,03,29,08,16,4.80
2020,03,29,08,17,3.20
2020,03,29,08,18,3.20
2020,03,29,08,19,4.80
2020,03,29,08,20,4.80
2020,03,29,08,21,3.20
2020,03,29,08,22,6.40
2020,03,29,08,23,4.80
2020,03,29,08,24,4.80
2020,03,29,08,25,4.80
2020,03,29,08,26,3.20
2020,03,29,08,27,4.80
2020,03,29,08,28,4.80
2020,03,29,08,29,1.60
2020,03,29,08,30,1.60
2020,03,29,08,31,1.60
2020,03,29,08,32,1.60
2020,03,29,08,33,3.20
2020,03,29,08,34,3.20
2020,03,29,08,36,1.60
2020,03,29,08,37,1.60
2020,03,29,08,38,1.60
2020,03,29,08,39,4.80
2020,03,29,08,40,4.80
2020,03,29,08,41,4.80
2020,03,29,08,42,4.80
2020,03,29,08,43,3.20
2020,03,29,08,44,1.60
2020,03,29,08,45,1.60
2020,03,29,08,46,1.60
2020,03,29,08,47,1.60
2020,03,29,08,48,1.60
2020,03,29,08,49,1.60
2020,03,29,08,50,1.60
2020,03,29,08,51,3.20
2020,03,29,08,52,4.80
2020,03,29,08,53,4.80
2020,03,29,08,54,3.20
2020,03,29,08,55,3.20
2020,03,29,08,56,4.80
2020,03,29,08,57,3.20
2020,03,29,08,58,3.20
2020,03,29,08,59,3.20
2020,03,29,09,00,1.60
2020,03,29,09,01,3.20
2020,03,29,09,02,1.60
2020,03,29,09,03,3.20
2020,03,29,09,04,4.80
2020,03,29,09,05,3.20
2020,03,29,09,06,4.80
2020,03,29,09,07,4.80
2020,03,29,09,08,4.80
2020,03,29,09,09,4.80
2020,03,29,09,10,3.20
2020,03,29,09,11,4.80
2020,03,29,09,12,1.60
2020,03,29,09,13,1.60
2020,03,29,09,14,3.20
2020,03,29,09,15,3.20
2020,03,29,09,16,3.20
2020,03,29,09,17,3.20
2020,03,29,09,18,1.60
2020,03,29,09,19,3.20
2020,03,29,09,20,4.80
2020,03,29,09,21,6.40
2020,03,29,09,22,3.20
2020,03,29,09,23,3.20
2020,03,29,09,24,1.60
2020,03,29,09,25,1.60
2020,03,29,09,26,3.20
2020,03,29,09,27,1.60
2020,03,29,09,28,1.60
2020,03,29,09,29,4.80
2020,03,29,09,30,4.80
2020,03,29,09,31,4.80
2020,03,29,09,32,4.80
2020,03,29,09,33,4.80
2020,03,29,09,34,3.20
2020,03,29,09,35,4.80
2020,03,29,09,36,3.20
2020,03,29,09,37,3.20
2020,03,29,09,38,4.80
2020,03,29,09,39,4.80
2020,03,29,09,40,4.80
2020,03,29,09,41,4.80
2020,03,29,09,42,3.20
2020,03,29,09,43,4.80
2020,03,29,09,44,6.40
2020,03,29,09,45,4.80
2020,03,29,09,46,3.20
2020,03,29,09,47,4.80
2020,03,29,09,48,4.80
2020,03,29,09,49,6.40
2020,03,29,09,50,4.80
2020,03,29,09,51,3.20
2020,03,29,09,52,4.80
2020,03,29,09,53,4.80
2020,03,29,09,54,4.80
2020,03,29,09,55,3.20
2020,03,29,09,56,3.20
2020,03,29,09,57,1.60
2020,03,29,09,58,3.20
2020,03,29,09,59,3.20
2020,03,29,10,00,4.80
2020,03,29,10,01,3.20
2020,03,29,10,02,3.20
2020,03,29,10,03,4.80
2020,03,29,10,04,4.80
2020,03,29,10,05,1.60
2020,03,29,10,06,4.80
2020,03,29,10,07,4.80
2020,03,29,10,08,4.80
2020,03,29,10,09,6.40
2020,03,29,10,10,1.60
2020,03,29,10,11,3.20
2020,03,29,10,12,4.80
2020,03,29,10,13,11.30
2020,03,29,10,14,9.60
2020,03,29,10,15,6.40
2020,03,29,10,16,11.30
2020,03,29,10,17,6.40
2020,03,29,10,18,8.10
2020,03,29,10,19,4.80
2020,03,29,10,20,3.20
2020,03,29,10,21,3.20
2020,03,29,10,22,8.10
2020,03,29,10,23,6.40
2020,03,29,10,24,3.20
2020,03,29,10,25,12.90
2020,03,29,10,26,4.80
2020,03,29,10,27,6.40
2020,03,29,10,28,8.10
2020,03,29,10,29,6.40
2020,03,29,10,30,8.10
2020,03,29,10,31,6.40
2020,03,29,10,32,14.50
2020,03,29,10,33,4.80
2020,03,29,10,34,9.60
2020,03,29,10,35,6.40
2020,03,29,10,36,9.60
2020,03,29,10,37,17.70
2020,03,29,10,38,11.30
2020,03,29,10,39,9.60
2020,03,29,10,40,4.80
2020,03,29,10,41,4.80
2020,03,29,10,42,12.90
2020,03,29,10,43,11.30
2020,03,29,10,44,11.30
2020,03,29,10,45,11.30
2020,03,29,10,46,16.10
2020,03,29,10,47,16.10
2020,03,29,10,48,12.90
2020,03,29,10,49,12.90
2020,03,29,10,50,12.90
2020,03,29,10,51,11.30
2020,03,29,10,52,12.90
2020,03,29,10,53,14.50
2020,03,29,10,54,14.50
2020,03,29,10,55,12.90
2020,03,29,10,56,11.30
2020,03,29,10,57,12.90
2020,03,29,10,58,11.30
2020,03,29,10,59,11.30
2020,03,29,11,00,17.70
2020,03,29,11,01,6.40
2020,03,29,11,02,8.10
2020,03,29,11,03,11.30
2020,03,29,11,04,11.30
2020,03,29,11,05,16.10
2020,03,29,11,06,11.30
2020,03,29,11,07,11.30
2020,03,29,11,08,11.30
2020,03,29,11,09,11.30
2020,03,29,11,10,9.60
2020,03,29,11,11,8.10
2020,03,29,11,12,6.40
2020,03,29,11,13,8.10
2020,03,29,11,14,8.10
2020,03,29,11,15,6.40
2020,03,29,11,16,6.40
2020,03,29,11,17,9.60
2020,03,29,11,18,12.90
2020,03,29,11,19,11.30
2020,03,29,11,20,8.10
2020,03,29,11,21,11.30
2020,03,29,11,22,8.10
2020,03,29,11,23,9.60
2020,03,29,11,24,8.10
2020,03,29,11,25,8.10
2020,03,29,11,26,6.40
2020,03,29,11,27,8.10
2020,03,29,11,28,11.30
2020,03,29,11,29,12.90
2020,03,29,11,30,11.30
2020,03,29,11,31,8.10
2020,03,29,11,32,1.60
2020,03,29,11,33,4.80
2020,03,29,11,34,4.80
2020,03,29,11,35,4.80
2020,03,29,11,36,9.60
2020,03,29,11,37,6.40
2020,03,29,11,38,16.10
2020,03,29,11,39,9.60
2020,03,29,11,40,16.10
2020,03,29,11,41,14.50
2020,03,29,11,42,14.50
2020,03,29,11,43,14.50
2020,03,29,11,44,12.90
2020,03,29,11,45,14.50
2020,03,29,11,46,14.50
2020,03,29,11,47,8.10
2020,03,29,11,48,9.60
2020,03,29,11,49,8.10
2020,03,29,11,50,14.50
2020,03,29,11,51,14.50
2020,03,29,11,52,20.90
2020,03,29,11,53,16.10
2020,03,29,11,54,17.70
2020,03,29,11,55,12.90
2020,03,29,11,56,16.10
2020,03,29,11,57,9.60
2020,03,29,11,58,17.70
2020,03,29,11,59,14.50
2020,03,29,12,00,12.90
2020,03,29,12,01,16.10
2020,03,29,12,02,16.10
2020,03,29,12,03,20.90
2020,03,29,12,04,17.70
2020,03,29,12,05,12.90
2020,03,29,12,06,14.50
2020,03,29,12,07,16.10
2020,03,29,12,08,16.10
2020,03,29,12,09,16.10
2020,03,29,12,10,11.30
2020,03,29,12,11,20.90
2020,03,29,12,12,17.70
2020,03,29,12,13,14.50
2020,03,29,12,14,19.30
2020,03,29,12,15,17.70
2020,03,29,12,16,19.30
2020,03,29,12,17,19.30
2020,03,29,12,18,19.30
2020,03,29,12,19,17.70
2020,03,29,12,20,20.90
2020,03,29,12,21,19.30
2020,03,29,12,22,14.50
2020,03,29,12,23,19.30
2020,03,29,12,24,14.50
2020,03,29,12,25,17.70
2020,03,29,12,26,16.10
2020,03,29,12,27,11.30
2020,03,29,12,28,12.90
2020,03,29,12,29,8.10
2020,03,29,12,30,12.90
2020,03,29,12,31,12.90
2020,03,29,12,32,14.50
2020,03,29,12,33,16.10
2020,03,29,12,34,11.30
2020,03,29,12,35,9.60
2020,03,29,12,36,11.30
2020,03,29,12,37,14.50
2020,03,29,12,38,11.30
2020,03,29,12,39,14.50
2020,03,29,12,40,9.60
2020,03,29,12,41,16.10
2020,03,29,12,42,16.10
2020,03,29,12,43,17.70
2020,03,29,12,44,16.10
2020,03,29,12,45,9.60
2020,03,29,12,46,12.90
2020,03,29,12,47,19.30
2020,03,29,12,48,12.90
2020,03,29,12,49,9.60
2020,03,29,12,50,16.10
2020,03,29,12,51,11.30
2020,03,29,12,52,14.50
2020,03,29,12,53,16.10
2020,03,29,12,54,19.30
2020,03,29,12,55,9.60
2020,03,29,12,56,17.70
2020,03,29,12,57,19.30
2020,03,29,12,58,14.50
2020,03,29,12,59,14.50
2020,03,29,13,00,17.70
2020,03,29,13,01,20.90
2020,03,29,13,02,17.70
2020,03,29,13,03,16.10
2020,03,29,13,04,19.30
2020,03,29,13,05,16.10
2020,03,29,13,06,12.90
2020,03,29,13,07,8.10
2020,03,29,13,08,12.90
2020,03,29,13,09,11.30
2020,03,29,13,10,16.10
2020,03,29,13,11,14.50
2020,03,29,13,12,19.30
2020,03,29,13,13,16.10
2020,03,29,13,14,20.90
2020,03,29,13,15,17.70
2020,03,29,13,16,6.40
2020,03,29,13,17,9.60
2020,03,29,13,18,12.90
2020,03,29,13,19,19.30
2020,03,29,13,20,17.70
2020,03,29,13,21,22.50
2020,03,29,13,22,19.30
2020,03,29,13,23,19.30
2020,03,29,13,24,20.90
2020,03,29,13,25,14.50
2020,03,29,13,26,20.90
2020,03,29,13,27,20.90
2020,03,29,13,28,8.10
2020,03,29,13,29,16.10
2020,03,29,13,30,19.30
2020,03,29,13,31,22.50
2020,03,29,13,32,27.40
2020,03,29,13,33,19.30
2020,03,29,13,34,19.30
2020,03,29,13,35,16.10
2020,03,29,13,36,22.50
2020,03,29,13,37,22.50
2020,03,29,13,38,25.70
2020,03,29,13,39,25.70
2020,03,29,13,40,19.30
2020,03,29,13,41,20.90
2020,03,29,13,42,17.70
2020,03,29,13,43,24.20
2020,03,29,13,44,30.60
2020,03,29,13,45,16.10
2020,03,29,13,46,16.10
2020,03,29,13,47,16.10
2020,03,29,13,48,24.20
2020,03,29,13,49,20.90
2020,03,29,13,50,27.40
2020,03,29,13,51,22.50
2020,03,29,13,52,24.20
2020,03,29,13,53,25.70
2020,03,29,13,54,19.30
2020,03,29,13,55,16.10
2020,03,29,13,56,20.90
2020,03,29,13,57,14.50
2020,03,29,13,58,25.70
2020,03,29,13,59,25.70
2020,03,29,14,00,29.00
2020,03,29,14,01,19.30
2020,03,29,14,02,19.30
2020,03,29,14,03,17.70
2020,03,29,14,04,30.60
2020,03,29,14,05,19.30
2020,03,29,14,06,22.50
2020,03,29,14,07,16.10
2020,03,29,14,08,22.50
2020,03,29,14,09,27.40
2020,03,29,14,10,20.90
2020,03,29,14,11,12.90
2020,03,29,14,12,20.90
2020,03,29,14,13,19.30
2020,03,29,14,14,17.70
2020,03,29,14,15,22.50
2020,03,29,14,16,29.00
2020,03,29,14,17,16.10
2020,03,29,14,18,20.90
2020,03,29,14,19,19.30
2020,03,29,14,20,14.50
2020,03,29,14,21,17.70
2020,03,29,14,22,25.70
2020,03,29,14,23,19.30
2020,03,29,14,24,22.50
2020,03,29,14,25,24.20
2020,03,29,14,26,17.70
2020,03,29,14,27,22.50
2020,03,29,14,28,11.30
2020,03,29,14,29,16.10
2020,03,29,14,30,16.10
2020,03,29,14,31,24.20
2020,03,29,14,32,16.10
2020,03,29,14,33,22.50
2020,03,29,14,34,22.50
2020,03,29,14,35,17.70
2020,03,29,14,36,30.60
2020,03,29,14,37,20.90
2020,03,29,14,38,19.30
2020,03,29,14,39,24.20
2020,03,29,14,40,22.50
2020,03,29,14,41,33.80
2020,03,29,14,42,22.50
2020,03,29,14,43,16.10
2020,03,29,14,44,24.20
2020,03,29,14,45,20.90
2020,03,29,14,46,14.50
2020,03,29,14,47,20.90
2020,03,29,14,48,16.10
2020,03,29,14,49,17.70
2020,03,29,14,50,17.70
2020,03,29,14,51,17.70
2020,03,29,14,52,24.20
2020,03,29,14,53,14.50
2020,03,29,14,54,19.30
2020,03,29,14,55,22.50
2020,03,29,14,56,17.70
2020,03,29,14,57,12.90
2020,03,29,14,58,14.50
2020,03,29,14,59,17.70
2020,03,29,15,00,19.30
2020,03,29,15,01,17.70
2020,03,29,15,02,12.90
2020,03,29,15,03,16.10
2020,03,29,15,04,14.50
2020,03,29,15,05,22.50
2020,03,29,15,06,22.50
2020,03,29,15,07,14.50
2020,03,29,15,08,17.70
2020,03,29,15,09,22.50
2020,03,29,15,10,14.50
2020,03,29,15,11,22.50
2020,03,29,15,12,19.30
2020,03,29,15,13,11.30
2020,03,29,15,14,20.90
2020,03,29,15,15,17.70
2020,03,29,15,16,25.70
2020,03,29,15,17,17.70
2020,03,29,15,18,38.60
2020,03,29,15,19,22.50
2020,03,29,15,20,22.50
2020,03,29,15,21,24.20
2020,03,29,15,22,27.40
2020,03,29,15,23,16.10
2020,03,29,15,24,30.60
2020,03,29,15,25,27.40
2020,03,29,15,26,19.30
2020,03,29,15,27,30.60
2020,03,29,15,28,19.30
2020,03,29,15,29,22.50
2020,03,29,15,30,17.70
2020,03,29,15,31,19.30
2020,03,29,15,32,22.50
2020,03,29,15,33,24.20
2020,03,29,15,34,24.20
2020,03,29,15,35,27.40
2020,03,29,15,36,24.20
2020,03,29,15,37,19.30
2020,03,29,15,38,16.10
2020,03,29,15,39,25.70
2020,03,29,15,40,24.20
2020,03,29,15,41,19.30
2020,03,29,15,42,14.50
2020,03,29,15,43,16.10
2020,03,29,15,44,19.30
2020,03,29,15,45,20.90
2020,03,29,15,46,22.50
2020,03,29,15,47,20.90
2020,03,29,15,48,20.90
2020,03,29,15,49,14.50
2020,03,29,15,50,22.50
2020,03,29,15,51,27.40
2020,03,29,15,52,19.30
2020,03,29,15,53,19.30
2020,03,29,15,54,25.70
2020,03,29,15,55,24.20
2020,03,29,15,56,17.70
2020,03,29,15,57,25.70
2020,03,29,15,58,17.70
2020,03,29,15,59,17.70
2020,03,29,16,00,19.30
2020,03,29,16,01,17.70
2020,03,29,16,02,14.50
2020,03,29,16,03,24.20
2020,03,29,16,04,29.00
2020,03,29,16,05,40.20
2020,03,29,16,06,27.40
2020,03,29,16,07,27.40
2020,03,29,16,08,16.10
2020,03,29,16,09,17.70
2020,03,29,16,10,19.30
2020,03,29,16,11,14.50
2020,03,29,16,12,20.90
2020,03,29,16,13,19.30
2020,03,29,16,14,12.90
2020,03,29,16,15,25.70
2020,03,29,16,16,25.70
2020,03,29,16,17,16.10
2020,03,29,16,18,27.40
2020,03,29,16,19,11.30
2020,03,29,16,20,20.90
2020,03,29,16,21,20.90
2020,03,29,16,22,19.30
2020,03,29,16,23,17.70
2020,03,29,16,24,14.50
2020,03,29,16,25,25.70
2020,03,29,16,26,19.30
2020,03,29,16,27,19.30
2020,03,29,16,28,24.20
2020,03,29,16,29,25.70
2020,03,29,16,30,32.20
2020,03,29,16,31,24.20
2020,03,29,16,32,22.50
2020,03,29,16,33,20.90
2020,03,29,16,34,24.20
2020,03,29,16,35,24.20
2020,03,29,16,36,29.00
2020,03,29,16,37,14.50
2020,03,29,16,38,24.20
2020,03,29,16,39,22.50
2020,03,29,16,40,16.10
2020,03,29,16,41,19.30
2020,03,29,16,42,19.30
2020,03,29,16,43,14.50
2020,03,29,16,44,24.20
2020,03,29,16,45,40.20
2020,03,29,16,46,20.90
2020,03,29,16,47,33.80
2020,03,29,16,48,29.00
2020,03,29,16,49,30.60
2020,03,29,16,50,19.30
2020,03,29,16,51,16.10
2020,03,29,16,52,20.90
2020,03,29,16,53,27.40
2020,03,29,16,54,41.80
2020,03,29,16,55,29.00
2020,03,29,16,56,16.10
2020,03,29,16,57,30.60
2020,03,29,16,58,20.90
2020,03,29,16,59,20.90
2020,03,29,17,00,19.30
2020,03,29,17,01,24.20
2020,03,29,17,02,25.70
2020,03,29,17,03,24.20
2020,03,29,17,04,32.20
2020,03,29,17,05,32.20
2020,03,29,17,06,24.20
2020,03,29,17,07,17.70
2020,03,29,17,08,20.90
2020,03,29,17,09,22.50
2020,03,29,17,10,22.50
2020,03,29,17,11,33.80
2020,03,29,17,12,29.00
2020,03,29,17,13,25.70
2020,03,29,17,14,16.10
2020,03,29,17,15,24.20
2020,03,29,17,16,33.80
2020,03,29,17,17,25.70
2020,03,29,17,18,24.20
2020,03,29,17,19,20.90
2020,03,29,17,20,37.00
2020,03,29,17,21,33.80
2020,03,29,17,22,25.70
2020,03,29,17,23,20.90
2020,03,29,17,24,20.90
2020,03,29,17,25,17.70
2020,03,29,17,26,25.70
2020,03,29,17,27,20.90
2020,03,29,17,28,20.90
2020,03,29,17,29,19.30
2020,03,29,17,30,30.60
2020,03,29,17,31,24.20
2020,03,29,17,32,25.70
2020,03,29,17,33,16.10
2020,03,29,17,34,19.30
2020,03,29,17,35,17.70
2020,03,29,17,36,30.60
2020,03,29,17,37,32.20
2020,03,29,17,38,16.10
2020,03,29,17,39,12.90
2020,03,29,17,40,20.90
2020,03,29,17,41,19.30
2020,03,29,17,42,27.40
2020,03,29,17,43,24.20
2020,03,29,17,44,24.20
2020,03,29,17,45,17.70
2020,03,29,17,46,14.50
2020,03,29,17,47,30.60
2020,03,29,17,48,22.50
2020,03,29,17,49,30.60
2020,03,29,17,50,25.70
2020,03,29,17,51,17.70
2020,03,29,17,52,24.20
2020,03,29,17,53,38.60
2020,03,29,17,54,24.20
2020,03,29,17,55,17.70
2020,03,29,17,56,22.50
2020,03,29,17,57,16.10
2020,03,29,17,58,19.30
2020,03,29,17,59,27.40
2020,03,29,18,00,16.10
2020,03,29,18,01,27.40
2020,03,29,18,02,16.10
2020,03,29,18,03,17.70
2020,03,29,18,04,37.00
2020,03,29,18,05,19.30
2020,03,29,18,06,25.70
2020,03,29,18,07,24.20
2020,03,29,18,08,22.50
2020,03,29,18,09,17.70
2020,03,29,18,10,20.90
2020,03,29,18,11,27.40
2020,03,29,18,12,30.60
2020,03,29,18,13,30.60
2020,03,29,18,14,20.90
2020,03,29,18,15,25.70
2020,03,29,18,16,35.40
2020,03,29,18,17,29.00
2020,03,29,18,18,25.70
2020,03,29,18,19,24.20
2020,03,29,18,20,22.50
2020,03,29,18,21,14.50
2020,03,29,18,22,22.50
2020,03,29,18,23,19.30
2020,03,29,18,24,33.80
2020,03,29,18,25,24.20
2020,03,29,18,26,22.50
2020,03,29,18,27,17.70
2020,03,29,18,28,12.90
2020,03,29,18,29,24.20
2020,03,29,18,30,27.40
2020,03,29,18,31,25.70
2020,03,29,18,32,33.80
2020,03,29,18,33,27.40
2020,03,29,18,34,30.60
2020,03,29,18,35,19.30
2020,03,29,18,36,24.20
2020,03,29,18,37,20.90
2020,03,29,18,38,27.40
2020,03,29,18,39,29.00
2020,03,29,18,40,24.20
2020,03,29,18,41,17.70
2020,03,29,18,42,12.90
2020,03,29,18,43,17.70
2020,03,29,18,44,27.40
2020,03,29,18,45,20.90
2020,03,29,18,46,14.50
2020,03,29,18,47,19.30
2020,03,29,18,48,22.50
2020,03,29,18,49,25.70
2020,03,29,18,50,17.70
2020,03,29,18,51,12.90
2020,03,29,18,52,20.90
2020,03,29,18,53,29.00
2020,03,29,18,54,12.90
2020,03,29,18,55,17.70
2020,03,29,18,56,22.50
2020,03,29,18,57,19.30
2020,03,29,18,58,25.70
2020,03,29,18,59,19.30
2020,03,29,19,00,25.70
2020,03,29,19,01,16.10
2020,03,29,19,02,17.70
2020,03,29,19,03,20.90
2020,03,29,19,04,16.10
2020,03,29,19,05,19.30
2020,03,29,19,06,29.00
2020,03,29,19,07,29.00
2020,03,29,19,08,27.40
2020,03,29,19,09,43.50
2020,03,29,19,10,30.60
2020,03,29,19,11,22.50
2020,03,29,19,12,20.90
2020,03,29,19,13,29.00
2020,03,29,19,14,32.20
2020,03,29,19,15,32.20
2020,03,29,19,16,32.20
2020,03,29,19,17,16.10
2020,03,29,19,18,16.10
2020,03,29,19,19,24.20
2020,03,29,19,20,27.40
2020,03,29,19,21,20.90
2020,03,29,19,22,25.70
2020,03,29,19,23,19.30
2020,03,29,19,24,12.90
2020,03,29,19,25,17.70
2020,03,29,19,26,17.70
2020,03,29,19,27,20.90
2020,03,29,19,28,12.90
2020,03,29,19,29,25.70
2020,03,29,19,30,20.90
2020,03,29,19,31,16.10
2020,03,29,19,32,17.70
2020,03,29,19,33,16.10
2020,03,29,19,34,27.40
2020,03,29,19,35,25.70
2020,03,29,19,36,27.40
2020,03,29,19,37,27.40
2020,03,29,19,38,25.70
2020,03,29,19,39,14.50
2020,03,29,19,40,24.20
2020,03,29,19,41,24.20
2020,03,29,19,42,32.20
2020,03,29,19,43,17.70
2020,03,29,19,44,25.70
2020,03,29,19,45,22.50
2020,03,29,19,46,19.30
2020,03,29,19,47,27.40
2020,03,29,19,48,20.90
2020,03,29,19,49,17.70
2020,03,29,19,50,22.50
2020,03,29,19,51,16.10
2020,03,29,19,52,30.60
2020,03,29,19,53,16.10
2020,03,29,19,54,25.70
2020,03,29,19,55,27.40
2020,03,29,19,56,20.90